Home > Weather > Creston > Past weeks

Flag for Canada Past Weather in Creston, British Columbia, Canada — Yesterday and Last 2 Weeks

Now
67 °F

Mild.


Feels Like: 67 °F
Forecast: 53 / 79 °F
Wind: 3 mph from Northeast

Location: Creston

Current Time: Aug 25, 2016 at 8:30:08 PM

Latest Report: Aug 25, 2016 at 8:00 PM


Visibility: N/A

Pressure: 30.04 "Hg (27.95 "Hg at 617m altitude)

Humidity: 52%

Dew Point: 49 °F

Location of CrestonLocation

Past Weather in Creston — Graph

°F

Creston Temperature Yesterday

Maximum temperature yesterday: 79 °F (at 5:00 PM)
Minimum temperature yesterday: 54 °F (at 7:00 AM)
Average temperature yesterday: 65 °F

High & Low Weather Summary for the Past Weeks

 TemperatureHumidityPressure
High89 °F (Aug 20, 6:00 PM)92% (Aug 11, 7:00 AM)30.34 "Hg (Aug 11, 7:00 AM)
Low53 °F (Aug 23, 6:00 AM)14% (Aug 21, 4:00 PM)29.52 "Hg (Aug 21, 10:00 PM)
Average70 °F47%30.02 "Hg
* Reported Aug 10 7:00 PM — Aug 25 7:00 PM, Creston, Weather by CustomWeather, © 2016

Note: Actual official high and low records may vary slightly from our data, if they occured in-between our weather recording intervals... More about our weather records

Advertising

Creston Weather History for the Previous 24 Hours

Scroll right to see more
 ConditionsComfort  
Time TempWeatherWind HumidityBarometerVisibility
7:00 PM
Thu, Aug 25
70 °FMild.3 mph42%30.05 "HgN/A
6:00 PM73 °FMild.5 mph41%30.05 "HgN/A
5:00 PM72 °FMild.5 mph40%30.07 "HgN/A
4:00 PM79 °FPleasantly warm.6 mph32%30.07 "HgN/A
3:00 PM76 °FMild.5 mph33%30.10 "HgN/A
2:00 PM77 °FPleasantly warm.5 mph34%30.12 "HgN/A
1:00 PM73 °FMild.5 mph41%30.14 "HgN/A
12:00 PM73 °FMild.2 mph37%30.17 "HgN/A
11:00 AM68 °FMild.3 mph45%30.20 "HgN/A
10:00 AM66 °FMild.1 mph50%30.22 "HgN/A
9:00 AM60 °FRefreshingly cool.2 mph58%30.24 "HgN/A
8:00 AM59 °FCool.1 mph64%30.25 "HgN/A
7:00 AM54 °FCool.2 mph66%30.25 "HgN/A
6:00 AM53 °FCool.2 mph66%30.25 "HgN/A
5:00 AM54 °FCool.1 mph66%30.24 "HgN/A
4:00 AM55 °FRefreshingly cool.3 mph60%30.24 "HgN/A
3:00 AM56 °FRefreshingly cool.5 mph58%30.24 "HgN/A
2:00 AM58 °FRefreshingly cool.2 mph57%30.24 "HgN/A
1:00 AM60 °FRefreshingly cool.2 mph52%30.23 "HgN/A
12:00 AM60 °FRefreshingly cool.1 mph52%30.23 "HgN/A
11:00 PM
Wed, Aug 24
62 °FMild.3 mph48%30.23 "HgN/A
10:00 PM64 °FMild.2 mph45%30.24 "HgN/A
9:00 PM66 °FMild.3 mph44%30.23 "HgN/A
8:00 PM66 °FMild.3 mph46%30.22 "HgN/A
Weather by CustomWeather, © 2016

See weather overviewHow to use our weather pages